Aeroporto :
LOGIN :

Iscrizione | Disclaimer

   EN    FR    IT 

 










Sommario :    VFR   VFR Marginale   IFR   IFR Intensivo   IFR Molto Intensivo
Visibilità : 
Base nubi : 
>= 8 km
>= 3000ft
5 / 8 km
1000 / 3000 ft
1500m / 5 km
500 / 1000 ft
800 / 1500m
200 / 500 ft
< 800m
< 200 ft
Simboli :   Temporali  Nebbia  Neve Forte  Precipitazioni Forti  Vento > 20 kt
SIGMETs :   Varie  Temporali  Ghiacco  Turbolenza  Onda orograficha  Ceneri Vulcaniche







- Altitudine del aeroporto : 289 ft
- Carte del aeroporto


LFYR - Romorantin Pruniers

ULTIMO METAR :
  • 191730Z AUTO 03006KT 350V080 9999 OVC045 05/M02 Q1007

METARs OBSOLETI :
  • 191700Z AUTO 04007KT 010V070 9999 OVC043 05/M03 Q1007
  • 191630Z AUTO 04009G19KT 010V080 9999 OVC040 05/M03 Q1008
  • 191600Z AUTO 04008KT 350V070 9999 OVC040 05/M03 Q1008 NOSIG
  • 191530Z AUTO 03007KT 340V080 9999 BKN038 06/M03 Q1008 NOSIG
  • 191500Z AUTO 04010KT 360V080 CAVOK 06/M04 Q1008 NOSIG

Previsioni scadute.
Nessun NOTAM noto per questo aeroporto.



MetMap, La meteo Aeronautica in un colpo d'occhio ! - Copyright ORBIFLY Dicembre 2007 - Disclaimer

ORBIFLY MET'MAP TEAM :

Programmazione e sviluppo : Alexandra Zaïnal
Concezione e sviluppo : Baudouin d'Aumeries
Co-Programmazione e sviluppo : Marc-Olivier Méhu
Supporto tecnico e logistico : Manuel Goepfert
Aiuto per la traduzione : Arnaldo La Scala

Contatto : metmap@orbifly.com




FONTI E CREDITI :

   NOAA